Heubes-Wetterstation in 44289 Dortmund
Heubes-Wetterstation

Messwerte der letzten 60 Minuten im Minuten-Intervall (Wetterstation 44289 Dortmund)

Datum & Uhrzeit Temp. Feucht. Wind-Ø Böen Sekt.  Regen Rate Luftdruck
24.01.2021 - 00:162.3 °C90%0 km/h 1 km/h O-SO0.0 mm 0.0 mm 991.2 hPa, gleichbleibend
24.01.2021 - 00:152.3 °C89%0 km/h 0 km/h O-SO0.0 mm 0.0 mm 991.2 hPa, gleichbleibend
24.01.2021 - 00:142.3 °C89.5%0 km/h 5 km/h O-SO0.0 mm 0.0 mm 991.2 hPa, gleichbleibend
24.01.2021 - 00:132.3 °C89%0 km/h 0 km/h O-SO0.0 mm 0.0 mm 991.3 hPa, gleichbleibend
24.01.2021 - 00:122.3 °C89%0 km/h 1 km/h O-SO0.0 mm 0.0 mm 991.2 hPa, gleichbleibend
24.01.2021 - 00:112.3 °C89%0 km/h 0 km/h O-SO0.0 mm 0.0 mm 991.2 hPa, gleichbleibend
24.01.2021 - 00:102.3 °C89%0 km/h 0 km/h O-SO0.0 mm 0.0 mm 991.3 hPa, gleichbleibend
24.01.2021 - 00:092.3 °C89%0 km/h 0 km/h O-SO0.0 mm 0.0 mm 991.3 hPa, gleichbleibend
24.01.2021 - 00:082.4 °C89%0 km/h 0 km/h O-SO0.0 mm 0.0 mm 991.3 hPa, gleichbleibend
24.01.2021 - 00:072.4 °C89%0 km/h 0 km/h O-SO0.0 mm 0.0 mm 991.3 hPa, gleichbleibend
24.01.2021 - 00:062.4 °C89%0 km/h 0 km/h O-SO0.0 mm 0.0 mm 991.3 hPa, gleichbleibend
24.01.2021 - 00:052.4 °C89%0 km/h 0 km/h O-SO0.0 mm 0.0 mm 991.3 hPa, gleichbleibend
24.01.2021 - 00:042.4 °C89%0 km/h 0 km/h O-SO0.0 mm 0.0 mm 991.3 hPa, gleichbleibend
24.01.2021 - 00:032.4 °C89%0 km/h 0 km/h O-SO0.0 mm 0.0 mm 991.3 hPa, langsam fallend
24.01.2021 - 00:022.4 °C89%0 km/h 0 km/h O-SO0.0 mm 0.0 mm 991.4 hPa, gleichbleibend
24.01.2021 - 00:012.4 °C89%0 km/h 0 km/h O-SO0.0 mm 0.0 mm 991.4 hPa, gleichbleibend
24.01.2021 - 00:002.4 °C89%0 km/h 0 km/h O-SO0.0 mm 0.0 mm 991.4 hPa, gleichbleibend
23.01.2021 - 23:592.4 °C89%0 km/h 0 km/h O-SO0.0 mm 0.0 mm 991.4 hPa, gleichbleibend
23.01.2021 - 23:582.4 °C89%0 km/h 0 km/h O-SO0.0 mm 0.0 mm 991.4 hPa, gleichbleibend
23.01.2021 - 23:572.4 °C89%0 km/h 0 km/h O-SO0.0 mm 0.0 mm 991.4 hPa, gleichbleibend
23.01.2021 - 23:562.4 °C89%0 km/h 0 km/h O-SO0.0 mm 0.0 mm 991.4 hPa, gleichbleibend
23.01.2021 - 23:552.4 °C89%0 km/h 0 km/h O-SO0.0 mm 0.0 mm 991.4 hPa, gleichbleibend
23.01.2021 - 23:542.4 °C89%0 km/h 0 km/h O-SO0.0 mm 0.0 mm 991.4 hPa, langsam fallend
23.01.2021 - 23:532.4 °C89%0 km/h 0 km/h O-SO0.0 mm 0.0 mm 991.5 hPa, gleichbleibend
23.01.2021 - 23:522.5 °C89%0 km/h 0 km/h O-SO0.0 mm 0.0 mm 991.5 hPa, gleichbleibend
23.01.2021 - 23:512.5 °C89%0 km/h 0 km/h O-SO0.0 mm 0.0 mm 991.5 hPa, gleichbleibend
23.01.2021 - 23:502.4 °C89%0 km/h 0 km/h O-SO0.0 mm 0.0 mm 991.5 hPa, gleichbleibend
23.01.2021 - 23:492.5 °C89%0 km/h 0 km/h O-SO0.0 mm 0.0 mm 991.5 hPa, gleichbleibend
23.01.2021 - 23:482.5 °C89%0 km/h 0 km/h O-SO0.0 mm 0.0 mm 991.5 hPa, gleichbleibend
23.01.2021 - 23:472.5 °C89%0 km/h 0 km/h O-SO0.0 mm 0.0 mm 991.5 hPa, gleichbleibend
23.01.2021 - 23:462.5 °C89%0 km/h 0 km/h O-SO0.0 mm 0.0 mm 991.5 hPa, gleichbleibend
23.01.2021 - 23:452.5 °C89%0 km/h 0 km/h O-SO0.0 mm 0.0 mm 991.5 hPa, gleichbleibend
23.01.2021 - 23:442.5 °C89%0 km/h 0 km/h O-SO0.0 mm 0.0 mm 991.5 hPa, gleichbleibend
23.01.2021 - 23:432.5 °C89%0 km/h 0 km/h O-SO0.0 mm 0.0 mm 991.5 hPa, gleichbleibend
23.01.2021 - 23:422.5 °C89%0 km/h 0 km/h O-SO0.0 mm 0.0 mm 991.5 hPa, gleichbleibend
23.01.2021 - 23:412.5 °C89%0 km/h 0 km/h O-SO0.0 mm 0.0 mm 991.5 hPa, gleichbleibend
23.01.2021 - 23:402.6 °C89%0 km/h 0 km/h O-SO0.0 mm 0.0 mm 991.5 hPa, langsam fallend
23.01.2021 - 23:392.6 °C89%0 km/h 0 km/h O-SO0.0 mm 0.0 mm 991.6 hPa, langsam steigend
23.01.2021 - 23:382.6 °C89%0 km/h 0 km/h O-SO0.0 mm 0.0 mm 991.5 hPa, gleichbleibend
23.01.2021 - 23:372.6 °C89%0 km/h 0 km/h O-SO0.0 mm 0.0 mm 991.5 hPa, langsam fallend
23.01.2021 - 23:362.6 °C89%0 km/h 0 km/h O-SO0.0 mm 0.0 mm 991.6 hPa, gleichbleibend
23.01.2021 - 23:352.6 °C89%0 km/h 0 km/h O-SO0.0 mm 0.0 mm 991.6 hPa, langsam steigend
23.01.2021 - 23:342.6 °C89%0 km/h 0 km/h O-SO0.0 mm 0.0 mm 991.5 hPa, langsam fallend
23.01.2021 - 23:332.6 °C89%0 km/h 0 km/h O-SO0.0 mm 0.0 mm 991.6 hPa, langsam steigend
23.01.2021 - 23:322.6 °C89%0 km/h 0 km/h O-SO0.0 mm 0.0 mm 991.5 hPa, langsam fallend
23.01.2021 - 23:312.6 °C89%0 km/h 0 km/h O-SO0.0 mm 0.0 mm 991.6 hPa, gleichbleibend
23.01.2021 - 23:302.6 °C89%0 km/h 0 km/h O-SO0.0 mm 0.0 mm 991.6 hPa, gleichbleibend
23.01.2021 - 23:292.6 °C89%0 km/h 0 km/h O-SO0.0 mm 0.0 mm 991.6 hPa, gleichbleibend
23.01.2021 - 23:282.6 °C89%0 km/h 0 km/h O-SO0.0 mm 0.0 mm 991.6 hPa, gleichbleibend
23.01.2021 - 23:272.6 °C89%0 km/h 0 km/h O-SO0.0 mm 0.0 mm 991.6 hPa, gleichbleibend
23.01.2021 - 23:262.6 °C89%0 km/h 0 km/h O-SO0.0 mm 0.0 mm 991.6 hPa, gleichbleibend
23.01.2021 - 23:252.6 °C89%0 km/h 0 km/h O-SO0.0 mm 0.0 mm 991.6 hPa, gleichbleibend
23.01.2021 - 23:242.6 °C88.7%0 km/h 0 km/h O-SO0.0 mm 0.0 mm 991.6 hPa, gleichbleibend
23.01.2021 - 23:232.7 °C88%0 km/h 0 km/h O-SO0.0 mm 0.0 mm 991.6 hPa, gleichbleibend
23.01.2021 - 23:222.7 °C88%0 km/h 0 km/h O-SO0.0 mm 0.0 mm 991.6 hPa, gleichbleibend
23.01.2021 - 23:212.7 °C88%0 km/h 0 km/h O-SO0.0 mm 0.0 mm 991.6 hPa, gleichbleibend
23.01.2021 - 23:202.7 °C88%0 km/h 0 km/h O-SO0.0 mm 0.0 mm 991.6 hPa, gleichbleibend
23.01.2021 - 23:192.7 °C88%0 km/h 0 km/h O-SO0.0 mm 0.0 mm 991.6 hPa, gleichbleibend
23.01.2021 - 23:182.7 °C88%0 km/h 0 km/h O-SO0.0 mm 0.0 mm 991.6 hPa, gleichbleibend
23.01.2021 - 23:172.7 °C88%0 km/h 0 km/h O-SO0.0 mm 0.0 mm 991.6 hPa, langsam fallend